www.pogodaiklimat.ru

Погода и климат >> Архив погоды >> Сенегал >> Cap-Skirring


ПОГОДА в Cap-Skirring

  • Прогноз погоды в Cap-Skirring
  • Монитор погоды в Cap-Skirring
  • Климат города

АРХИВ ПОГОДЫ в Cap-Skirring

Время (UTC), дата Ветер
(напр.,м/с)
 
Видим.   Явления Облачность Т
(С)
Тd
(С)
f
(%)
Тe
(С)
Тes
(С)
Комфортность P
(гПа)
Po
(гПа)
Тmin
(С)
Tmax
(С)
R
(мм)
R24
(мм)
S
(см)
15 11.09 СЗ 3 10 км 9/8 450 м
[Sc Ac As]
+29.1 +25.5 81 +43 +45 опасность
перегрева
1010.6 1009.2
18 11.09 З 2 10 км 9/3 450 м
[Sc Ac As]
+27.1 +24.8 87 +39 +39 очень
душно
1010.2 1008.7 +30.3
21 11.09 СЗ 3 10 км 9/3 450 м
[Cu med, cong Ac As]
+26.8 +25.5 93 +39 +39 очень
душно
1011.8 1010.4
00 12.09 СЗ 2 10 км 9/5 450 м
[Sc Ac As]
+26.6 +23.9 85 +37 +37 очень
душно
1012.7 1011.3
03 12.09 СЗ 2 10 км 9/4 450 м
[Sc Ac As]
+26.6 +23.0 81 +36 +36 очень
душно
1011.4 1009.9
06 12.09 СЗ 2 10 км 5/3 450 м
[Sc Ac As]
+25.5 +23.0 86 +34 +34 очень
душно
1010.7 1009.3 +25.3
09 12.09 З 1 10 км 5/3 450 м
[Sc Ci sp]
+26.5 +23.0 81 +35 +39 очень
душно
1012.4 1011.0
12 12.09 З 1 10 км 4/4 450 м
[Cu med, cong]
+29.4 +23.7 71 +40 +54 опасность
солнечного
удара
1013.3 1011.1
15 12.09 ЮЗ 2 10 км 4/4 450 м
[Cu med, cong]
+29.9 +23.1 67 +40 +50 очень
душно
1011.4 1010.0
18 12.09 ЮЗ 1 10 км 6/3 450 м
[Sc Ci sp]
+25.5 +22.7 85 +34 +35 очень
душно
1010.2 1008.8 +30.1
21 12.09 Ю 1 10 км зарница 5/3 450 м
[Cb calv Ci sp]
+25.8 +23.2 86 +35 +35 очень
душно
1011.7 1010.2
00 13.09 Ю 1 10 км 5/3 450 м
[Sc Ci sp]
+26.0 +23.1 84 +35 +35 очень
душно
1012.6 1011.2
03 13.09 Ю 2 10 км 6/3 450 м
[Sc Ci sp]
+26.1 +23.0 83 +35 +35 очень
душно
1011.3 1009.9
06 13.09 ЮЗ 1 10 км 5/3 450 м
[Sc Ci sp]
+25.8 +23.2 86 +35 +35 очень
душно
1011.6 1010.2 +25.4
09 13.09 Ю 1 10 км 5/3 450 м
[Sc Ac trans]
+27.0 +23.4 81 +37 +40 очень
душно
1012.7 1011.3
12 13.09 Ю 2 10 км 6/5 450 м
[Cu med, cong Ac As]
+29.3 +24.3 75 +41 +50 опасность
перегрева
1013.1 1011.7
15 13.09 Ю 2 10 км 3/3 450 м
[Cu med, cong]
+30.0 +24.3 72 +42 +54 опасность
перегрева
1011.1 1009.7
18 13.09 Ю 1 10 км 3/3 450 м
[Cu med, cong]
+28.5 +24.1 77 +40 +41 очень
душно
1010.2 1008.9 +30.6
21 13.09 Ю 2 10 км зарница 3/3 450 м
[Cb cap Ci sp]
+26.8 +24.2 86 +37 +37 очень
душно
1012.2 1010.8
00 14.09 Ю 1 10 км 3/3 450 м
[Sc]
+26.5 +23.8 85 +36 +36 очень
душно
1012.9 1011.5
03 14.09 Ю 1 10 км 3/3 450 м
[Sc]
+26.2 +23.1 83 +35 +35 очень
душно
1011.5 1010.1
06 14.09 Ю 1 10 км 3/3 450 м
[Sc]
+26.0 +24.0 89 +36 +36 очень
душно
1011.6 1010.2 +25.6
09 14.09 Ю 1 10 км 8/5 450 м
[Cu med, cong Ci sp]
+27.9 +24.5 82 +39 +42 очень
душно
1012.4 1010.9
12 14.09 Ю 2 10 км 8/8 450 м
[Cu med, cong]
+29.0 +25.1 80 +42 +46 опасность
перегрева
1013.8 1012.3
15 14.09 З 1 10 км 8/6 450 м
[Cu med, cong Ci sp]
+31.5 +25.7 71 +46 +53 опасность
перегрева
1010.5 1009.1
18 14.09 З 1 10 км 6/4 450 м
[Cu med, cong Ci sp]
+29.2 +25.3 80 +43 +44 опасность
перегрева
1010.5 1009.1 +31.7
21 14.09 С 1 10 км 4/4 450 м
[Sc]
+27.6 +25.5 88 +40 +40 очень
душно
1011.9 1010.4
00 15.09 Ю 1 10 км зарница 4/4 450 м
[Cb cap]
+25.7 +24.7 94 +36 +36 очень
душно
1013.5 1012.1
03 15.09 Ю 1 10 км зарница 3/3 450 м
[Cb cap]
+25.2 +24.2 94 +35 +35 очень
душно
1011.6 1010.2
06 15.09 С 1 10 км 5/5 450 м
[Sc]
+24.4 +23.4 94 +33 +33 очень
душно
1011.8 1010.4 +24.0
09 15.09 ЮВ 1 10 км 9/3 450 м
[Sc Ac As]
+26.4 +24.0 87 +37 +38 очень
душно
1012.6 1011.2
12 15.09 Ю 1 10 км 6/6 450 м
[Cu med, cong]
+29.6 +25.2 77 +43 +52 опасность
перегрева
1013.9 1012.5
18 15.09 ЮЗ 1 10 км 4/4 450 м
[Cu med, cong]
+29.3 +24.5 75 +41 +43 опасность
перегрева
1011.7 1010.3 +30.7
21 15.09 З 1 10 км 3/3 450 м
[Sc]
+27.7 +24.6 83 +39 +39 очень
душно
1013.2 1011.8
00 16.09 штиль 0 10 км гроза без осадков 4/3 450 м
[Cb cap]
+26.2 +24.6 91 +37 +37 очень
душно
1014.3 1012.9
03 16.09 Ю 1 10 км 5/5 450 м
[Sc]
+24.5 +23.0 91 +32 +32 очень
душно
1012.3 1010.9
06 16.09 СВ 1 10 км 3/3 450 м
[Sc]
+24.7 +23.7 94 +34 +34 очень
душно
1012.6 1011.2 +7.9
09 16.09 СВ 1 10 км 3/3 450 м
[Sc]
+27.1 +25.8 93 +40 +45 очень
душно
1013.1 1011.7
12 16.09 ЮЗ 1 10 км 6/6 450 м
[Cu med, cong]
+30.4 +26.4 79 +46 +55 опасность
перегрева
1013.2 1011.8
15 16.09 Ю 2 10 км 5/1 450 м
[Cu med, cong Ci sp]
+31.5 +26.1 73 +47 +62 опасность
перегрева
1011.2 1009.8
18 16.09 ЮЗ 1 10 км 1/1 450 м
[Sc]
+30.2 +25.0 74 +44 +46 опасность
перегрева
1011.0 1009.6 +31.9
21 16.09 З 1 10 км ясно +28.4 +24.9 81 +41 +41 опасность
перегрева
1012.0 1010.6
00 17.09 З 1 10 км 4/4 450 м
[Sc]
+28.0 +25.3 85 +41 +41 опасность
перегрева
1012.7 1011.3
03 17.09 З 1 10 км ясно +27.6 +25.5 88 +40 +40 очень
душно
1011.8 1010.4
06 17.09 З 2 10 км 5/5 450 м
[Sc]
+27.5 +25.4 88 +40 +40 очень
душно
1011.4 1010.0 +27.2
09 18.09 СЗ 2 10 км 4/4 450 м
[Cu med, cong]
+28.8 +25.6 83 +43 +45 опасность
перегрева
1011.1 1009.7
12 18.09 З 1 10 км 5/5 450 м
[Cu med, cong]
+30.9 +26.0 75 +46 +58 опасность
перегрева
1012.2 1010.8

 

Местоположение метеостанции Cap-Skirring (Сенегал): широта 12.40 долгота -16.75 высота над уровнем моря 13 м.

В архиве по умолчанию представлена погода в Cap-Skirring за последнюю неделю. Архивные данные за месяц целиком и за предыдущие месяцы, начиная с января 2011 года, Вы можете получить, выбрав интересующий диапазон дат из раскрывающегося списка и нажав кнопку "Ввод!".


*Определитесь, кто Вы:
робот инопланетянин человек

Внимание! Время в таблицах - всемирное. Для получения местного времени необходимо прибавить поправку, которая в Cap-Skirring равна 0 ч.

Смотрите также архив погоды в соседних городах и на ближайших метеорологических станциях:

Погода в Ziguinchor (Сенегал) (56 км)
Погода в Banjil Int Airport (Гамбия) (105 км)
Погода в Sibanor (Гамбия) (109 км)
Погода в Banjul Half-Die (Гамбия) (121 км)
Погода в Bissau (Гвинея-Биссау) (132 км)
Погода в Kerewan (Гамбия) (141 км)
Погода в Sapu (Гамбия) (158 км)
Погода в Bolama (Гвинея-Биссау) (166 км)
Погода в Jenoi (Гамбия) (175 км)
Погода в Kolda (Сенегал) (201 км)

Пояснения к столбцам:

Ветер - указаны скорость ветра в м/с - средняя за 10 мин, порывы в срок и между сроками (в фигурных скобках) и направление, откуда дует ветер: С - северный, СВ - северо-восточный, В - восточный, ЮВ - юго-восточный, Ю - южный, ЮЗ - юго-западный, З - западный, СЗ - северо-западный.
Видимость - горизонтальная дальность видимости в метрах или километрах. При видимости от 1 до 10 км при отсутствии осадков обычно наблюдается дымка, при ухудшении видимости до 1 км и менее - туман. В сухую погоду видимость может ухудшаться дымом, пылью или мглою.
Явления - указаны атмосферные явления, наблюдавшиеся в срок или в последний час перед сроком; фигурными скобками обозначены явления, наблюдавшиеся между сроками (за 1-3 часа до срока); квадратными скобками обозначены град или гололедные отложения с указанием их диаметра в мм.
Облачность - указаны через наклонную черту общая и нижняя облачность в баллах и высота нижней границы облаков в метрах; квадратными скобками обозначены формы облаков: Ci - перистые, Cs - перисто-слоистые, Cc - перисто-кучевые, Ac - высококучевые, As - высокослоистые, Sc - слоисто-кучевые, Ns - слоисто-дождевые, Cu - кучевые, Cb - кучево-дождевые. Подробнее классификацию облаков см. в Атласе облаков (PDF).
T - Температура воздуха - температура, измеренная на высоте 2 м над землей.
Td - Температура точки росы - температура, при понижении до которой содержащийся в воздухе водяной пар достигнет насыщения.
f - Относительная влажность воздуха - влажноcть воздуха, измеренная на высоте 2 м над землей.
Te - Эффективная температура - температура, которую ощущает одетый по сезону человек в тени. Характеристика душности погоды. При расчете учитывается влияние влажности воздуха и скорости ветра на теплоощущения человека.
Tes - Эффективная температура на солнце - температура, которую ощущает человек, с поправкой на солнечный нагрев. Характеристика знойности погоды. Зависит от высоты солнца над горизонтом, облачности и скорости ветра. Ночью, в пасмурную погоду, а также при ветре 12 м/с и более поправка равна нулю.
P - Атмосферное давление - приведенное к уровню моря атмосферное давление.
Po - Атмосферное давление - измеренное на уровне метеостанции атмосферное давление.
Tmin - Минимальная температура - минимум температуры воздуха на высоте 2 м над землей.
Tmax - Максимальная температура - максимум температуры воздуха на высоте 2 м над землей.
R - Количество осадков - Количество выпавших осадков за период времени, мм. При наведении курсора мыши на число - период времени, за который выпало указанное количество осадков.
R24 - Количество осадков - Количество выпавших осадков за 24 часа, мм.
S - Снежный покров - Высота снежного покрова, см. При наведении курсора мыши на число - состояние снежного покрова и степень покрытия местности в баллах.